Dania, FL

1:59 PM EDT on September 28, 2016 (GMT -0400)
Fort Lauderdale-Hollywood International

Weather History for KFLL - August, 2013

Change the Weather History Date:

Wednesday, August 14, 2013

  Actual Average Record
Temperature  
Mean Temperature 85 °F 85 °F  
Max Temperature 90 °F 91 °F 97 °F (1982)
Min Temperature 80 °F 79 °F 68 °F (1923)
Degree Days  
Heating Degree Days 0 0  
Month to date heating degree days 0 0  
Since 1 June heating degree days 0 0  
Since 1 July heating degree days 0 0  
Cooling Degree Days 20 20  
Month to date cooling degree days 267 280  
Year to date cooling degree days 2732 2839  
Since 1 June cooling degree days 1336 1421  
Growing Degree Days 34 (Base 50)    
Moisture  
Dew Point 74 °F    
Average Humidity 72    
Maximum Humidity 85    
Minimum Humidity 59    
Precipitation  
Precipitation 0.02 in 0.24 in 2.71 in (1983)
Month to date precipitation 0.76 3.15  
Year to date precipitation 55.76 36.78  
Snow  
Snow 0.00 in - - ()
Month to date snowfall 0.0  
Since 1 June snowfall 0.0  
Since 1 July snowfall 0.0  
Snow Depth 0.00 in    
Sea Level Pressure  
Sea Level Pressure 29.99 in    
Wind  
Wind Speed 9 mph (SE)    
Max Wind Speed 21 mph    
Max Gust Speed 24 mph    
Visibility 10 miles    
Events Rain    
T = Trace of Precipitation, MM = Missing Value Source: NWS Daily Summary

Daily Weather History Graph

Daily Weather History Graph

Search for Another Location

Airport or City:

Trip Planner

Search our weather history database for the weather conditions in past years. The results will help you decide how hot, cold, wet, or windy it might be!

Date:

Astronomy

Aug. 14, 2013 Rise Set
Actual Time 6:52 AM EDT 7:57 PM EDT
Civil Twilight 6:28 AM EDT 8:21 PM EDT
Nautical Twilight 6:00 AM EDT 8:49 PM EDT
Astronomical Twilight 5:30 AM EDT 9:19 PM EDT
Moon 2:00 PM EDT (8/14) 12:18 AM EDT (8/14)
Length of Visible Light 13h 52m
Length of Day
13h 04m
First Quarter, 52% of the Moon is Illuminated
Aug 14
First Quarter
Aug 20
Full
Aug 28
Last Quarter
Sep 5
New
Sep 12
First Quarter

Hourly Weather History & Observations

Time (EDT) Temp. Heat Index Dew Point Humidity Pressure Visibility Wind Dir Wind Speed Gust Speed Precip Events Conditions
12:53 AM 82.9 °F 89.4 °F 73.9 °F 74% 30.02 in 10.0 mi SE 5.8 mph - N/A   Partly Cloudy
1:53 AM 82.9 °F 90.2 °F 75.0 °F 77% 30.00 in 10.0 mi SE 5.8 mph - N/A   Scattered Clouds
2:53 AM 82.9 °F 90.2 °F 75.0 °F 77% 29.99 in 10.0 mi SE 5.8 mph - N/A   Partly Cloudy
3:53 AM 82.0 °F 87.9 °F 73.9 °F 76% 29.97 in 10.0 mi SE 3.5 mph - N/A   Partly Cloudy
4:53 AM 81.0 °F 86.2 °F 73.9 °F 79% 29.97 in 10.0 mi Calm Calm - N/A   Partly Cloudy
5:53 AM 81.0 °F 86.2 °F 73.9 °F 79% 29.97 in 10.0 mi Calm Calm - N/A   Partly Cloudy
6:53 AM 81.0 °F 86.2 °F 73.9 °F 79% 29.98 in 10.0 mi SSE 5.8 mph - N/A   Scattered Clouds
7:53 AM 82.0 °F 87.4 °F 73.0 °F 74% 29.99 in 10.0 mi SSE 4.6 mph - N/A   Partly Cloudy
8:53 AM 84.0 °F 91.2 °F 73.9 °F 72% 29.98 in 10.0 mi SE 10.4 mph - N/A   Partly Cloudy
9:53 AM 86.0 °F 92.2 °F 72.0 °F 63% 29.99 in 10.0 mi SE 9.2 mph - N/A   Partly Cloudy
10:53 AM 87.1 °F 95.4 °F 73.9 °F 65% 29.99 in 10.0 mi ESE 9.2 mph - N/A   Partly Cloudy
11:53 AM 88.0 °F 96.5 °F 73.9 °F 63% 30.00 in 10.0 mi SE 13.8 mph - N/A   Partly Cloudy
12:53 PM 88.0 °F 94.7 °F 72.0 °F 59% 30.00 in 10.0 mi SE 10.4 mph - N/A   Partly Cloudy
1:53 PM 88.0 °F 93.8 °F 71.1 °F 57% 29.99 in 10.0 mi SSE 12.7 mph - N/A   Partly Cloudy
2:53 PM 89.1 °F 98.0 °F 73.9 °F 61% 29.98 in 10.0 mi ESE 16.1 mph - N/A   Partly Cloudy
3:53 PM 88.0 °F 95.6 °F 73.0 °F 61% 29.96 in 10.0 mi ESE 15.0 mph - N/A   Partly Cloudy
4:53 PM 88.0 °F 95.6 °F 73.0 °F 61% 29.95 in 10.0 mi ESE 13.8 mph 19.6 mph N/A   Partly Cloudy
5:53 PM 87.1 °F 95.4 °F 73.9 °F 65% 29.94 in 10.0 mi SE 12.7 mph 18.4 mph N/A   Partly Cloudy
6:53 PM 86.0 °F 93.0 °F 73.0 °F 65% 29.96 in 9.0 mi SSE 12.7 mph - N/A   Partly Cloudy
7:53 PM 84.0 °F 91.2 °F 73.9 °F 72% 29.97 in 10.0 mi SE 10.4 mph - N/A   Partly Cloudy
8:53 PM 84.0 °F 91.2 °F 73.9 °F 72% 29.98 in 10.0 mi SE 11.5 mph - N/A   Scattered Clouds
9:53 PM 80.1 °F 85.4 °F 75.9 °F 87% 30.02 in 5.0 mi ESE 15.0 mph - 0.02 in Rain Light Rain
10:53 PM 81.0 °F 87.9 °F 77.0 °F 88% 30.02 in 10.0 mi SE 5.8 mph - 0.00 in   Partly Cloudy
11:53 PM 81.0 °F 87.3 °F 75.9 °F 85% 30.02 in 10.0 mi SE 6.9 mph - N/A   Scattered Clouds